Temp
-13 -13 -13 -13 -13 -13 -13 -13 -12 -12 -12 -12 -12 -11 -11 -11 -11 -11 -10 -10 -10 -10 -11 -10 -10 -10 -11 -11 -11 -11 -10 -9 -8 -8 -8 -8 -9 -11 -11 -10 -9 -9 -10 -8 -9
-13 -13 -13 -13 -13 -13 -13 -13 -13 -13 -12 -12 -12 -12 -12 -11 -11 -10 -11 -10 -10 -11 -11 -11 -11 -11 -10 -10 -11 -11 -10 -9 -9 -9 -9 -9 -10 -9 -11 -9 -9 -9 -10 -9 -9
-13 -13 -13 -13 -13 -13 -13 -13 -13 -13 -13 -12 -12 -12 -12 -12 -11 -11 -11 -11 -11 -11 -11 -11 -10 -10 -10 -10 -11 -11 -9 -9 -9 -10 -10 -11 -10 -11 -9 -9 -9 -10 -10 -10 -10
-13 -14 -14 -13 -13 -13 -13 -13 -13 -13 -13 -13 -13 -12 -12 -12 -11 -12 -11 -11 -11 -11 -11 -11 -11 -11 -10 -10 -11 -11 -10 -10 -10 -10 -11 -11 -11 -12 -9 -10 -10 -11 -10 -10 -10
-13 -13 -14 -14 -14 -14 -14 -14 -13 -13 -13 -13 -13 -13 -13 -12 -11 -12 -12 -12 -12 -12 -11 -11 -11 -11 -11 -11 -11 -10 -10 -10 -11 -11 -12 -11 -10 -10 -9 -9 -10 -9 -11 -10 -10
-13 -13 -14 -14 -14 -14 -14 -14 -13 -13 -13 -13 -13 -13 -13 -12 -12 -12 -12 -12 -12 -12 -12 -12 -11 -11 -11 -11 -11 -11 -10 -10 -10 -10 -10 -11 -11 -11 -8 -10 -10 -11 -10 -11 -9
-13 -13 -13 -13 -14 -14 -14 -14 -14 -13 -13 -13 -13 -13 -12 -12 -12 -12 -12 -12 -12 -12 -12 -12 -12 -12 -12 -11 -11 -11 -11 -11 -10 -10 -10 -10 -10 -10 -9 -9 -10 -11 -11 -10 -10
-13 -13 -13 -13 -13 -13 -13 -14 -14 -13 -13 -13 -12 -12 -12 -12 -12 -11 -11 -11 -11 -12 -12 -11 -12 -12 -12 -12 -12 -12 -12 -11 -10 -11 -10 -12 -10 -9 -9 -9 -9 -10 -11 -11 -11
-13 -13 -13 -13 -13 -13 -13 -13 -13 -14 -13 -13 -13 -13 -12 -13 -12 -12 -12 -12 -12 -12 -11 -11 -11 -11 -12 -12 -12 -12 -11 -12 -11 -11 -11 -13 -11 -9 -10 -10 -10 -11 -11 -11 -12
-13 -13 -13 -13 -13 -13 -13 -13 -13 -14 -13 -13 -14 -13 -13 -12 -13 -13 -13 -13 -13 -13 -13 -12 -12 -12 -12 -12 -11 -12 -13 -12 -11 -11 -13 -13 -12 -10 -10 -10 -10 -11 -12 -11 -11
-14 -14 -13 -13 -13 -13 -13 -14 -13 -13 -14 -14 -14 -14 -13 -13 -13 -13 -13 -13 -13 -13 -13 -13 -13 -13 -13 -13 -12 -13 -12 -11 -11 -11 -14 -16 -15 -10 -10 -10 -10 -10 -10 -10 -11
-14 -14 -14 -14 -13 -13 -13 -13 -13 -13 -14 -13 -14 -14 -13 -13 -13 -13 -13 -14 -14 -14 -14 -14 -14 -14 -14 -13 -13 -13 -13 -12 -12 -12 -14 -13 -12 -10 -10 -10 -11 -11 -11 -11 -11
-15 -14 -14 -14 -14 -14 -14 -14 -14 -14 -14 -14 -14 -14 -14 -14 -14 -14 -14 -14 -15 -15 -15 -15 -15 -15 -15 -14 -15 -15 -14 -13 -13 -13 -14 -12 -13 -12 -10 -11 -10 -10 -10 -10 -11
-16 -15 -15 -14 -14 -14 -14 -14 -14 -14 -14 -14 -14 -15 -14 -15 -14 -14 -14 -15 -15 -15 -15 -15 -16 -16 -15 -15 -16 -15 -16 -15 -15 -14 -14 -14 -13 -13 -11 -11 -11 -11 -11 -11 -10
-16 -16 -15 -15 -15 -15 -14 -14 -14 -14 -14 -14 -14 -15 -15 -15 -15 -15 -15 -15 -15 -15 -15 -16 -17 -18 -17 -17 -20 -19 -19 -19 -18 -17 -16 -15 -16 -11 -12 -11 -12 -11 -12 -12 -11
-16 -16 -16 -16 -15 -15 -15 -15 -15 -15 -15 -14 -15 -15 -15 -16 -16 -15 -15 -16 -16 -18 -21 -20 -21 -22 -21 -20 -20 -19 -18 -19 -20 -21 -19 -14 -18 -12 -12 -12 -12 -12 -13 -13 -12
-16 -16 -16 -16 -15 -16 -16 -16 -15 -16 -15 -15 -15 -16 -16 -16 -16 -16 -17 -18 -21 -21 -22 -22 -22 -22 -22 -21 -21 -21 -20 -21 -21 -21 -19 -17 -20 -18 -12 -13 -13 -14 -15 -15 -13
-16 -16 -16 -16 -16 -16 -16 -16 -16 -16 -16 -16 -16 -17 -17 -19 -20 -20 -20 -22 -22 -21 -21 -22 -22 -22 -22 -22 -21 -20 -20 -20 -21 -21 -20 -20 -20 -19 -18 -15 -15 -14 -13 -16 -14
-15 -16 -16 -15 -16 -16 -16 -16 -16 -16 -16 -16 -17 -17 -18 -19 -19 -21 -22 -22 -22 -21 -21 -22 -21 -23 -23 -22 -22 -21 -22 -21 -20 -21 -20 -21 -20 -19 -18 -16 -15 -14 -16 -16 -14
-15 -15 -15 -15 -16 -16 -16 -17 -17 -16 -17 -17 -17 -17 -18 -18 -19 -22 -22 -22 -20 -21 -22 -21 -21 -23 -23 -22 -22 -21 -21 -21 -21 -21 -20 -21 -20 -20 -19 -19 -18 -17 -16 -15 -15
-15 -15 -15 -15 -16 -16 -17 -17 -17 -17 -17 -18 -18 -18 -18 -19 -20 -20 -21 -21 -21 -21 -21 -21 -21 -21 -22 -22 -22 -22 -21 -21 -21 -21 -21 -20 -20 -20 -19 -18 -18 -16 -16 -15 -15
-14 -15 -15 -15 -16 -16 -16 -17 -17 -17 -18 -18 -18 -18 -19 -20 -20 -20 -20 -21 -21 -21 -21 -21 -22 -22 -21 -21 -22 -21 -21 -21 -22 -21 -21 -21 -19 -20 -18 -18 -18 -16 -15 -16 -15
-14 -15 -15 -15 -15 -16 -16 -17 -17 -18 -18 -19 -19 -19 -20 -20 -20 -20 -20 -21 -21 -21 -21 -21 -21 -21 -21 -22 -21 -21 -21 -21 -21 -21 -20 -20 -19 -20 -19 -17 -18 -16 -16 -15 -14
-15 -15 -15 -16 -16 -16 -16 -17 -18 -18 -18 -19 -19 -20 -20 -21 -21 -20 -20 -20 -21 -21 -22 -21 -21 -22 -21 -22 -22 -22 -21 -21 -22 -21 -21 -20 -20 -20 -18 -17 -17 -16 -16 -16 -14
-15 -15 -16 -16 -16 -16 -17 -18 -18 -19 -19 -20 -20 -20 -20 -21 -21 -20 -20 -20 -21 -21 -21 -21 -21 -22 -22 -22 -22 -22 -21 -20 -22 -21 -21 -21 -21 -20 -19 -17 -16 -17 -17 -17 -16
-16 -16 -16 -16 -16 -17 -18 -18 -18 -19 -19 -20 -20 -20 -20 -21 -20 -20 -20 -21 -21 -21 -21 -21 -21 -21 -21 -21 -21 -21 -21 -20 -20 -22 -21 -21 -21 -21 -19 -18 -18 -18 -18 -17 -14
-16 -16 -16 -16 -16 -17 -17 -18 -19 -19 -21 -20 -20 -20 -20 -20 -20 -20 -20 -20 -20 -20 -20 -21 -21 -21 -21 -21 -21 -21 -21 -22 -22 -22 -22 -21 -21 -21 -21 -20 -20 -18 -15 -15 -14
Height
5763 5762 5760 5759 5758 5758 5758 5758 5758 5760 5760 5761 5762 5763 5765 5766 5768 5770 5774 5777 5781 5783 5787 5787 5791 5794 5796 5800 5802 5805 5806 5809 5818 5822 5829 5830 5831 5837 5840 5840 5848 5854 5857 5853 5855
5759 5759 5758 5756 5756 5755 5755 5755 5755 5755 5756 5756 5757 5759 5760 5761 5763 5767 5770 5770 5773 5776 5779 5781 5784 5786 5788 5792 5794 5795 5796 5805 5817 5818 5820 5823 5827 5830 5830 5835 5841 5848 5849 5851 5849
5756 5755 5754 5753 5752 5751 5751 5751 5751 5751 5751 5752 5753 5754 5755 5756 5758 5763 5763 5765 5767 5769 5771 5774 5776 5777 5780 5782 5785 5788 5788 5804 5805 5810 5812 5816 5818 5820 5823 5827 5835 5840 5842 5845 5846
5751 5750 5749 5748 5748 5747 5747 5747 5747 5747 5747 5747 5748 5749 5750 5751 5754 5755 5757 5758 5760 5763 5764 5766 5768 5770 5772 5775 5776 5776 5785 5790 5798 5799 5798 5802 5807 5807 5811 5816 5824 5831 5836 5834 5842
5747 5746 5745 5744 5743 5742 5742 5742 5742 5742 5743 5743 5744 5744 5744 5745 5748 5748 5751 5752 5754 5756 5757 5759 5761 5762 5763 5765 5765 5770 5778 5778 5781 5785 5784 5793 5795 5798 5803 5813 5819 5818 5823 5826 5832
5744 5743 5741 5740 5739 5738 5738 5737 5737 5737 5737 5737 5737 5738 5739 5739 5741 5742 5743 5745 5746 5748 5749 5751 5752 5754 5755 5756 5759 5762 5763 5766 5770 5773 5777 5780 5784 5787 5800 5808 5810 5810 5816 5814 5817
5742 5740 5737 5736 5734 5733 5733 5732 5731 5731 5730 5731 5731 5731 5732 5734 5734 5735 5736 5737 5738 5739 5740 5741 5743 5745 5745 5747 5751 5751 5751 5755 5762 5766 5766 5770 5768 5774 5793 5794 5796 5799 5806 5805 5804
5740 5737 5735 5733 5730 5729 5727 5726 5726 5725 5725 5725 5725 5724 5724 5727 5727 5727 5728 5729 5730 5731 5732 5733 5734 5735 5736 5737 5739 5741 5742 5745 5760 5755 5760 5755 5756 5772 5780 5779 5785 5790 5794 5800 5800
5738 5735 5732 5730 5727 5725 5723 5722 5721 5720 5720 5719 5719 5718 5718 5720 5720 5720 5720 5721 5722 5722 5723 5723 5724 5725 5726 5726 5728 5733 5730 5732 5741 5746 5744 5740 5744 5762 5767 5765 5769 5775 5780 5787 5792
5736 5733 5730 5726 5724 5722 5720 5719 5717 5717 5715 5714 5714 5714 5713 5713 5714 5713 5713 5713 5713 5713 5713 5713 5713 5713 5714 5714 5720 5717 5716 5721 5726 5739 5731 5727 5728 5747 5752 5753 5756 5761 5763 5769 5778
5733 5730 5727 5724 5721 5719 5717 5715 5714 5714 5709 5709 5709 5707 5705 5706 5706 5705 5705 5704 5703 5703 5703 5702 5702 5702 5702 5702 5704 5700 5702 5707 5715 5718 5710 5711 5718 5729 5736 5741 5743 5747 5751 5755 5762
5730 5727 5724 5721 5718 5716 5713 5711 5709 5708 5706 5705 5703 5702 5701 5699 5698 5696 5696 5695 5693 5692 5691 5691 5690 5689 5688 5689 5689 5687 5688 5694 5696 5698 5693 5698 5701 5716 5722 5726 5729 5731 5738 5744 5750
5725 5722 5720 5717 5715 5713 5711 5708 5706 5704 5702 5701 5699 5697 5695 5694 5690 5689 5686 5684 5683 5682 5680 5679 5679 5677 5675 5676 5675 5674 5675 5679 5677 5679 5676 5688 5686 5696 5709 5711 5713 5718 5724 5732 5738
5720 5717 5715 5713 5712 5709 5706 5704 5702 5699 5695 5698 5694 5692 5689 5687 5683 5681 5679 5678 5673 5670 5667 5665 5664 5662 5662 5664 5660 5658 5663 5662 5659 5662 5662 5669 5666 5678 5696 5700 5701 5708 5713 5719 5726
5714 5712 5710 5708 5706 5704 5702 5699 5697 5695 5692 5690 5686 5684 5682 5680 5677 5672 5667 5663 5661 5658 5656 5654 5649 5646 5645 5647 5647 5645 5648 5646 5645 5645 5645 5650 5652 5673 5679 5682 5686 5694 5700 5705 5711
5707 5705 5704 5702 5701 5699 5697 5694 5692 5691 5686 5683 5682 5677 5674 5670 5666 5662 5658 5652 5647 5644 5642 5639 5638 5635 5631 5631 5631 5631 5632 5632 5633 5635 5629 5642 5641 5651 5661 5668 5673 5679 5685 5690 5698
5703 5699 5697 5696 5695 5693 5691 5689 5688 5684 5681 5677 5673 5670 5668 5664 5659 5654 5650 5646 5645 5640 5637 5634 5631 5626 5623 5622 5623 5624 5623 5621 5623 5624 5619 5630 5631 5630 5651 5649 5657 5664 5673 5679 5683
5699 5696 5692 5691 5689 5686 5685 5684 5682 5678 5675 5671 5668 5665 5662 5658 5654 5648 5644 5644 5642 5636 5631 5624 5620 5618 5617 5614 5614 5616 5616 5616 5612 5615 5617 5621 5616 5618 5625 5630 5637 5648 5657 5665 5673
5696 5693 5689 5686 5683 5681 5680 5677 5674 5671 5667 5665 5662 5659 5656 5652 5647 5643 5642 5640 5635 5631 5626 5620 5616 5614 5613 5610 5612 5612 5613 5607 5604 5606 5605 5608 5609 5611 5619 5624 5628 5641 5651 5654 5660
5694 5689 5686 5683 5679 5677 5675 5672 5669 5666 5663 5659 5655 5652 5648 5643 5638 5635 5635 5633 5629 5626 5620 5616 5608 5607 5604 5605 5605 5606 5608 5609 5605 5601 5598 5600 5602 5606 5614 5620 5624 5632 5639 5648 5652
5694 5689 5684 5680 5676 5674 5671 5668 5663 5659 5656 5653 5648 5644 5640 5636 5632 5631 5630 5628 5624 5620 5616 5611 5606 5605 5598 5602 5603 5605 5602 5602 5597 5595 5592 5594 5597 5607 5595 5601 5607 5623 5635 5641 5640
5694 5688 5683 5679 5677 5671 5667 5663 5659 5654 5649 5646 5643 5638 5634 5630 5629 5628 5626 5623 5619 5613 5610 5605 5600 5596 5594 5594 5596 5597 5599 5592 5590 5591 5587 5586 5588 5581 5589 5595 5597 5605 5617 5630 5633
5695 5690 5684 5678 5673 5668 5663 5657 5651 5647 5642 5640 5636 5633 5629 5626 5626 5624 5622 5618 5613 5608 5603 5600 5596 5590 5590 5591 5589 5589 5589 5589 5587 5585 5584 5582 5585 5580 5581 5588 5589 5597 5604 5613 5624
5695 5689 5683 5677 5671 5665 5659 5652 5646 5640 5635 5633 5630 5627 5624 5622 5621 5620 5618 5614 5609 5603 5598 5593 5591 5585 5583 5582 5577 5581 5582 5584 5582 5580 5580 5575 5574 5575 5575 5586 5590 5595 5602 5608 5623
5695 5688 5682 5675 5668 5661 5654 5647 5641 5636 5630 5627 5626 5622 5620 5619 5618 5616 5613 5610 5604 5599 5594 5590 5586 5581 5577 5575 5574 5574 5576 5579 5579 5578 5577 5572 5572 5567 5567 5579 5587 5594 5592 5604 5616
5693 5686 5679 5673 5665 5657 5649 5643 5636 5631 5626 5624 5621 5618 5616 5615 5615 5613 5610 5605 5601 5597 5592 5587 5584 5579 5575 5571 5570 5570 5571 5572 5577 5578 5573 5571 5572 5570 5567 5573 5579 5579 5592 5598 5612
5691 5684 5676 5670 5661 5653 5645 5639 5633 5628 5623 5619 5617 5614 5612 5612 5611 5608 5605 5601 5596 5593 5588 5586 5582 5577 5575 5571 5569 5569 5567 5565 5567 5572 5572 5570 5569 5568 5572 5575 5577 5581 5587 5597 5610
Wind_Speed
20 20 17 16 17 17 18 19 20 21 21 22 24 24 25 26 26 27 28 28 31 34 35 37 38 38 46 57 49 45 49 50 46 44 39 40 38 22 29 37 35 32 23 32 35
20 19 19 18 19 19 19 19 19 20 20 20 21 22 24 25 27 27 25 28 29 34 36 36 37 38 40 43 54 61 57 51 41 41 39 43 36 40 40 35 37 38 34 42 38
18 19 20 19 19 20 20 21 21 21 21 22 23 23 24 25 27 22 27 28 30 32 35 37 37 39 40 45 49 52 50 59 47 43 39 37 40 40 44 41 37 38 43 43 49
19 20 20 21 21 22 23 23 24 24 24 24 24 25 26 26 29 25 27 28 29 30 32 35 37 39 40 43 42 51 44 43 49 55 56 49 45 44 48 43 39 29 37 43 43
16 17 18 18 19 20 21 20 21 24 27 28 28 27 28 29 29 30 30 31 31 32 34 35 37 39 41 41 45 45 43 46 48 50 58 58 55 55 52 43 42 51 37 34 41
18 18 18 19 19 20 21 22 22 22 22 22 23 24 26 31 29 31 32 34 36 36 36 37 39 41 43 43 44 45 48 50 50 50 51 57 64 63 56 45 46 50 51 38 45
17 17 17 19 21 21 22 23 24 24 24 25 26 26 27 28 29 31 31 33 34 36 37 39 41 42 44 45 44 47 50 50 50 51 54 52 59 69 58 57 53 49 48 56 56
17 17 16 16 17 18 20 22 23 24 25 25 27 28 29 27 30 31 33 34 35 37 39 41 43 44 46 47 47 49 51 53 45 51 50 53 59 54 52 66 63 59 52 50 58
18 18 17 16 15 15 16 18 18 19 20 21 22 24 27 23 28 30 32 34 35 37 38 40 42 45 47 49 50 50 54 54 53 52 54 54 58 50 50 53 65 67 64 62 58
19 19 17 16 16 15 15 15 16 15 18 20 19 23 25 25 26 28 31 33 35 37 38 40 42 44 47 49 50 51 54 56 56 50 54 51 59 55 53 55 56 60 66 70 63
20 18 17 17 17 17 16 16 17 13 19 19 21 23 28 26 28 30 30 33 36 38 40 42 44 45 46 49 51 56 58 60 59 60 53 38 43 59 58 57 57 58 59 61 65
19 18 16 16 17 17 17 17 17 17 17 17 20 20 23 26 29 31 31 33 35 37 39 40 43 44 48 51 54 57 59 59 60 62 63 64 67 63 61 61 60 61 59 59 59
20 18 18 17 16 16 16 18 18 19 19 19 19 18 20 22 26 27 32 34 36 37 39 41 42 43 46 49 50 53 57 60 65 66 66 68 70 68 64 65 66 65 65 61 60
23 20 18 17 17 17 18 18 19 21 23 18 17 19 21 24 30 31 32 33 36 38 39 42 42 44 45 47 47 52 50 56 58 64 68 64 71 71 65 65 68 65 64 62 62
23 22 20 18 18 18 19 19 19 21 25 22 24 22 24 26 29 32 35 39 39 39 40 38 40 38 45 44 34 44 41 44 49 58 58 62 62 71 69 70 71 68 66 66 64
24 21 19 19 19 20 20 19 19 20 21 25 21 25 28 30 35 36 38 42 43 40 33 37 30 32 37 36 35 35 41 47 45 40 54 64 49 71 69 71 69 70 60 58 70
29 24 21 21 20 19 20 20 19 19 21 24 25 27 29 33 34 36 38 34 22 28 23 25 25 30 33 31 28 25 23 31 31 35 45 44 35 49 65 65 67 65 57 46 58
23 26 21 22 24 22 21 21 19 18 19 22 25 25 28 26 26 30 28 16 15 22 28 27 25 20 22 14 19 27 19 34 28 27 33 30 40 39 42 53 56 67 65 47 59
25 24 24 24 24 22 20 20 23 23 24 24 24 24 25 25 29 22 12 14 17 22 27 28 29 21 21 22 19 15 22 26 22 29 34 34 37 43 44 49 54 56 47 43 55
30 26 24 22 21 19 19 19 21 23 22 24 25 26 27 29 25 13 8 13 18 21 25 26 34 18 24 20 17 17 19 26 29 32 36 31 21 16 14 23 27 40 41 37 29
31 31 29 25 23 22 21 19 23 26 25 24 25 26 28 27 14 9 12 16 21 23 25 25 30 17 16 20 13 14 17 25 26 30 31 25 18 9 32 29 31 30 19 33 44
33 31 31 29 25 23 22 23 26 26 28 25 24 24 25 19 11 11 15 19 22 29 24 25 29 28 21 23 18 20 16 31 25 25 25 31 24 26 23 31 43 40 39 36 41
34 32 31 30 30 31 31 30 29 28 27 23 24 22 24 13 12 12 18 22 25 31 28 27 31 31 19 8 23 24 25 26 23 23 22 26 23 27 22 35 48 29 36 22 34
33 33 33 31 31 33 33 33 32 34 26 20 21 20 19 14 17 16 20 21 28 24 24 24 27 29 17 20 29 28 27 20 18 24 19 23 32 35 23 19 46 31 22 24 41
35 35 35 34 34 36 37 33 31 32 28 18 18 19 16 14 15 17 18 20 23 21 20 20 19 19 19 19 25 27 27 17 20 22 28 32 31 38 34 33 47 31 10 20 45
34 34 36 35 37 37 35 31 31 27 24 17 19 18 13 12 11 13 16 20 21 18 19 23 23 21 14 12 17 22 19 22 27 26 29 32 34 31 30 13 22 13 7 38 50
33 35 36 36 38 40 38 33 30 26 20 19 18 18 13 11 12 15 19 17 20 18 17 22 27 20 10 13 13 16 17 27 24 26 21 26 27 24 26 30 12 17 36 43 42
Wind_Direction
279 280 277 273 268 267 265 255 255 258 259 251 245 245 246 247 246 246 248 244 242 241 241 246 248 248 240 236 233 241 237 235 232 234 235 231 227 221 251 236 232 211 234 231 229
283 278 275 273 270 268 265 263 260 257 256 256 253 250 247 247 247 247 245 246 242 238 238 242 245 246 248 242 241 240 238 234 236 236 238 238 239 237 236 235 231 223 230 228 238
279 279 280 277 274 273 272 270 267 265 262 260 258 255 252 251 248 248 248 246 244 242 242 242 244 246 246 250 245 245 251 236 234 238 239 245 238 242 241 235 229 234 230 238 235
288 284 278 274 273 271 267 266 267 266 265 262 261 260 260 260 257 252 253 250 249 248 247 246 245 247 246 245 244 242 247 244 239 243 241 237 235 241 234 230 212 228 242 240 238
301 291 287 281 274 268 268 267 263 262 261 261 262 261 260 258 258 258 253 254 252 250 249 248 249 249 248 246 246 250 249 245 245 246 244 238 239 247 237 236 235 229 213 247 241
309 301 294 289 285 282 279 277 275 272 268 264 260 257 257 258 259 257 257 257 256 254 252 251 249 249 250 250 251 248 247 246 246 248 246 243 243 245 232 235 236 236 237 229 238
318 313 305 296 288 283 279 278 278 276 276 276 273 269 264 262 259 258 256 254 254 255 255 255 254 253 253 251 250 248 248 249 249 254 251 250 244 244 238 237 235 233 233 234 236
326 321 315 308 300 292 284 279 275 275 275 273 272 271 268 266 264 264 261 259 257 255 255 256 256 255 255 255 254 254 253 253 252 252 254 255 250 245 247 246 240 239 235 228 240
325 321 319 317 312 303 293 288 285 280 277 274 272 267 263 264 263 262 261 261 260 259 258 257 256 255 255 255 254 254 255 254 250 252 255 255 255 248 246 247 246 242 244 236 232
329 327 328 326 321 314 308 302 297 295 288 285 282 277 275 272 267 265 266 266 265 265 266 264 262 260 258 257 255 255 256 253 252 247 256 257 258 246 245 245 244 246 248 240 238
319 318 321 321 321 321 319 318 312 313 304 298 294 289 287 282 280 277 275 274 271 268 267 266 265 264 263 263 259 256 252 251 249 249 244 236 248 244 248 245 245 243 242 247 249
307 306 311 318 318 318 319 317 314 312 309 310 301 300 294 292 289 286 283 280 278 276 274 271 268 267 263 259 258 259 260 256 253 251 246 249 248 248 243 243 246 247 243 243 244
306 301 297 301 309 311 312 312 312 309 305 307 305 303 297 295 292 294 292 291 287 284 280 277 274 270 268 265 262 259 258 258 256 251 250 249 250 249 244 248 248 246 245 242 243
300 301 296 294 302 305 307 306 310 312 309 315 312 312 306 303 298 297 292 293 292 290 287 284 281 274 266 264 261 260 258 255 254 251 252 248 249 247 246 246 249 251 253 251 246
296 299 296 293 300 305 305 306 307 308 313 314 314 312 310 308 304 303 309 304 300 295 289 288 282 280 271 266 256 257 255 256 256 252 251 247 251 246 246 244 247 249 249 251 250
300 292 292 293 303 307 304 303 306 306 307 305 312 315 315 317 314 314 314 312 312 312 313 305 307 295 286 277 270 273 263 256 257 259 257 249 251 248 245 246 245 244 247 255 247
327 307 282 286 296 305 308 302 303 304 308 310 318 317 316 314 314 312 314 318 320 308 309 299 281 268 270 269 268 270 268 265 262 255 263 261 265 258 243 244 243 241 240 231 244
328 337 318 299 298 299 305 302 301 300 301 309 310 312 312 316 310 308 311 322 308 315 320 316 308 269 256 291 282 243 275 242 251 258 259 247 250 246 244 243 240 237 239 237 240
340 330 323 318 308 305 306 304 309 312 311 309 307 311 309 301 298 297 307 290 301 320 330 315 319 290 270 280 257 252 260 276 264 271 264 263 259 250 248 247 245 239 234 236 243
356 351 338 320 313 314 311 305 307 309 306 305 307 310 309 308 303 277 275 307 313 320 316 318 330 305 273 251 251 249 236 257 266 272 273 270 272 273 267 255 250 207 218 229 236
1 3 358 348 337 326 318 312 316 316 311 308 308 310 311 309 288 276 303 312 315 312 310 310 318 328 276 236 281 253 277 273 269 264 267 266 249 198 237 215 194 189 194 225 225
15 10 4 358 350 338 328 320 316 315 310 306 305 310 311 300 267 285 304 312 303 302 304 305 312 310 290 240 236 245 263 276 285 291 277 259 213 241 222 197 189 176 203 213 232
8 10 5 1 354 346 334 320 312 306 305 305 307 311 310 271 269 291 308 308 306 312 301 301 305 303 282 227 256 242 246 271 274 278 262 254 192 251 229 198 196 182 187 174 215
6 3 360 356 351 345 334 321 314 310 306 305 305 309 307 273 275 293 310 314 322 319 317 298 307 307 284 254 263 255 237 267 265 259 275 268 256 253 202 191 190 196 199 176 209
4 3 1 356 349 345 338 332 326 323 307 310 308 308 303 266 284 298 315 318 323 331 327 324 332 311 310 286 267 276 271 236 283 285 283 277 288 255 261 136 179 181 105 186 210
1 1 359 358 351 348 347 341 333 329 315 307 310 309 295 286 278 309 318 313 328 317 317 333 322 329 340 311 266 259 258 250 249 262 267 276 279 284 250 221 174 109 182 194 205
354 357 357 358 353 351 350 346 338 336 315 313 311 310 292 286 298 317 326 333 317 329 330 315 319 311 321 288 268 282 283 256 260 253 261 276 271 271 281 271 322 197 205 195 188